Regional Weather Roundup
Issued by NWS

Home | Current Version | Previous Version | Graphics & Text | Print | Product List | Glossary On
Versions: 1 2 3 4 5 6 7 8 9 10 11 12 13 14 15 16 17 18 19 20 21 22 23 24 25 26 27 28 29 30 31 32 33 34 35 36 37 38 39 40 41 42 43 44 45 46 47 48 49 50
000
ASUS43 KTOP 301859
RWRKS

WEATHER ROUNDUP FOR KANSAS
NATIONAL WEATHER SERVICE GOODLAND KS
200 PM CDT SAT AUG 30 2014

NOTE:  "FAIR" INDICATES FEW OR NO CLOUDS BELOW 12,000 FEET WITH NO
SIGNIFICANT WEATHER AND/OR OBSTRUCTIONS TO VISIBILITY.

KSZ001>006-013>018-027>032-041>047-302000-
NORTHWEST KANSAS

CITY           SKY/WX    TMP DP  RH WIND       PRES   REMARKS
GOODLAND       SUNNY     86  51  29 S16       29.97F
HAYS           SUNNY     90  54  29 S10G23    29.94F
HILL CITY      SUNNY     88  59  37 S12G20    29.93F
RUSSELL        SUNNY     86  62  44 S10       29.93F
$$

KSZ061>065-074>080-084>089-302000-
SOUTHWEST KANSAS

CITY           SKY/WX    TMP DP  RH WIND       PRES   REMARKS
DODGE CITY     SUNNY     91  49  23 S14       29.98F
ELKHART          N/A     89  54  30 S15         N/A
GARDEN CITY    SUNNY     88  50  27 S13G23    29.97F
GREAT BEND     SUNNY     88  55  33 SE8G16    29.95F
LIBERAL        SUNNY     91  55  29 S13G22    29.99F
$$

KSZ066>073-081>083-090>101-302000-
SOUTHEAST KANSAS

CITY           SKY/WX    TMP DP  RH WIND       PRES   REMARKS
CHANUTE        SUNNY     91  60  35 W6        29.93F
COFFEYVILLE    SUNNY     91  64  40 NW7       29.92F
HUTCHINSON     MOSUNNY   89  61  38 E6        29.95F
NEWTON         MOSUNNY   90  55  31 NW5       29.99F
PARSONS        MOSUNNY   90  66  45 SW9       29.94F
WICHITA INTL   MOSUNNY   89  57  33 SE6       29.94F
WICHITA JABRA  SUNNY     89  57  33 VRB3      29.94F
WINFIELD       SUNNY     89  62  40 CALM      29.95F
$$

KSZ007>012-019>026-033>040-048>060-102>105-302000-
NORTHEAST KANSAS

CITY           SKY/WX    TMP DP  RH WIND       PRES   REMARKS
CONCORDIA      SUNNY     84  65  52 SE5       29.94F
EMPORIA        SUNNY     88  59  37 VRB3      29.94F
LAWRENCE       SUNNY     90  67  46 CALM      29.92F
MANHATTAN      SUNNY     89  63  41 CALM      29.92F
OLATHE IND     SUNNY     86  64  47 VRB5      29.94F
OLATHE EXE     SUNNY     86  64  47 VRB7      29.93F
SALINA         MOSUNNY   89  58  34 S8        29.93F
TOPEKA BILLARD MOSUNNY   89  67  47 VRB5      29.92F
TOPEKA FORBES  SUNNY     88  63  43 VRB6      29.93F
$$



USA.gov is the U.S. government's official web portal to all federal, state and local government web resources and services.